Find SkySat C13

NORAD ID: 43802 Int'l Des: 2018-099 Owner: PLABST Country: US operational
LEOCIRCULARRETROGRADESSO

リアルタイム位置

3D地球を読み込み中...

SkySat C13について

説明を読み込み中...

次回通過

Passes for default location (London). Set your location on the main map for personalized predictions.

高度履歴

Loading altitude history...

軌道要素

1 43802U 18099AW 26119.63923397 .00150256 00000-0 53475-3 0 9991
2 43802 96.9263 167.7574 0002381 97.5664 262.5880 15.88546215415222
Epoch: Apr 29, 2026 • Age: 4 hours

現在のステータス

高度 332.9 km
速度 7.71 km/s
衛星直下点 -66.14°S, 32.09°E
打ち上げ日 Dec 3, 2018
運用期間 7.4 years
タイプ earth observation

技術仕様

分類 Payload
質量 110.00 kg
乾燥質量 110.00 kg
総質量 110.00 kg
長さ 1.20 m
直径 0.50 m
スパン 0.50 m
形状 Box
製造者 SSLMAX
バスタイプ SkySat-Gen2
フェーズステータス In Orbit
所有者/国 PLABST/US

Most Searched